contact:dominique.lefevre@mio.osupytheas.fr, maurice.libes@osupytheas.fr, didier.mallarino@osupytheas.fr
Project:EMSO http://www.emso-fr.org/EMSO-France
Depth: 2436.0 m
Title:EMSO Ligure Ouest : Data MII capteur MICROCAT
DateTime_Computer,Latitude,Longitude,Temperature,Conductivity,Pressure,DateTime_Instrument
DateTime_Computer,Latitude,Longitude,degC,S m-1,dbar,DateTime_Instrument
2021-02-16T00:02:12Z,42.805,6.029,13.3025,4.60064,2470.203,2021-2-16T02:03:16Z
2021-02-16T00:05:15Z,42.805,6.029,13.3022,4.60066,2470.189,2021-2-16T02:06:19Z
2021-02-16T00:08:19Z,42.805,6.029,13.3015,4.60044,2470.203,2021-2-16T02:09:23Z
2021-02-16T00:11:22Z,42.805,6.029,13.3009,4.60059,2470.217,2021-2-16T02:12:26Z
2021-02-16T00:14:25Z,42.805,6.029,13.3014,4.60044,2470.156,2021-2-16T02:15:29Z
2021-02-16T00:17:28Z,42.805,6.029,13.3011,4.60056,2470.217,2021-2-16T02:18:32Z
2021-02-16T00:20:31Z,42.805,6.029,13.3009,4.60067,2470.156,2021-2-16T02:21:35Z
2021-02-16T00:23:34Z,42.805,6.029,13.3018,4.60051,2470.18,2021-2-16T02:24:38Z
2021-02-16T00:26:37Z,42.805,6.029,13.2995,4.60033,2470.194,2021-2-16T02:27:41Z
2021-02-16T00:29:40Z,42.805,6.029,13.3007,4.60048,2470.171,2021-2-16T02:30:44Z
2021-02-16T00:32:44Z,42.805,6.029,13.3009,4.60046,2470.194,2021-2-16T02:33:47Z
2021-02-16T00:35:47Z,42.805,6.029,13.3000,4.60025,2470.18,2021-2-16T02:36:51Z
2021-02-16T00:38:50Z,42.805,6.029,13.3006,4.60050,2470.194,2021-2-16T02:39:54Z
2021-02-16T00:41:53Z,42.805,6.029,13.3001,4.60052,2470.194,2021-2-16T02:42:57Z
2021-02-16T00:44:56Z,42.805,6.029,13.3004,4.60046,2470.156,2021-2-16T02:46:00Z
2021-02-16T00:47:59Z,42.805,6.029,13.3005,4.60043,2470.171,2021-2-16T02:49:03Z
2021-02-16T00:51:02Z,42.805,6.029,13.2998,4.60038,2470.18,2021-2-16T02:52:06Z
2021-02-16T00:54:05Z,42.805,6.029,13.3015,4.60064,2470.18,2021-2-16T02:55:09Z
2021-02-16T00:57:09Z,42.805,6.029,13.3007,4.60085,2470.18,2021-2-16T02:58:12Z
2021-02-16T01:00:12Z,42.805,6.029,13.3015,4.60073,2470.133,2021-2-16T03:01:16Z
2021-02-16T01:03:15Z,42.805,6.029,13.3041,4.60052,2470.194,2021-2-16T03:04:19Z
2021-02-16T01:06:18Z,42.805,6.029,13.3054,4.60084,2470.194,2021-2-16T03:07:22Z
2021-02-16T01:09:21Z,42.805,6.029,13.3042,4.60047,2470.194,2021-2-16T03:10:25Z
2021-02-16T01:12:24Z,42.805,6.029,13.3041,4.60020,2470.194,2021-2-16T03:13:28Z
2021-02-16T01:15:27Z,42.805,6.029,13.3045,4.60039,2470.147,2021-2-16T03:16:31Z
2021-02-16T01:18:30Z,42.805,6.029,13.3034,4.60056,2470.171,2021-2-16T03:19:34Z
2021-02-16T01:21:34Z,42.805,6.029,13.3034,4.60041,2470.171,2021-2-16T03:22:37Z
2021-02-16T01:24:37Z,42.805,6.029,13.3035,4.60039,2470.147,2021-2-16T03:25:41Z
2021-02-16T01:27:40Z,42.805,6.029,13.3030,4.60032,2470.133,2021-2-16T03:28:44Z
2021-02-16T01:30:43Z,42.805,6.029,13.3041,4.60069,2470.147,2021-2-16T03:31:47Z
2021-02-16T01:33:46Z,42.805,6.029,13.3051,4.60044,2470.156,2021-2-16T03:34:50Z
2021-02-16T01:36:49Z,42.805,6.029,13.3048,4.60092,2470.147,2021-2-16T03:37:53Z
2021-02-16T01:39:52Z,42.805,6.029,13.3041,4.60032,2470.171,2021-2-16T03:40:56Z
2021-02-16T01:42:55Z,42.805,6.029,13.3006,4.60049,2470.18,2021-2-16T03:43:59Z
2021-02-16T01:45:59Z,42.805,6.029,13.3039,4.60060,2470.171,2021-2-16T03:47:02Z
2021-02-16T01:49:02Z,42.805,6.029,13.3040,4.60072,2470.156,2021-2-16T03:50:06Z
2021-02-16T01:52:05Z,42.805,6.029,13.3041,4.60031,2470.156,2021-2-16T03:53:09Z
2021-02-16T01:55:08Z,42.805,6.029,13.3046,4.60039,2470.194,2021-2-16T03:56:12Z
2021-02-16T01:58:11Z,42.805,6.029,13.3036,4.60058,2470.171,2021-2-16T03:59:15Z
2021-02-16T02:01:14Z,42.805,6.029,13.3058,4.60072,2470.156,2021-2-16T04:02:18Z
2021-02-16T02:04:17Z,42.805,6.029,13.3051,4.60074,2470.133,2021-2-16T04:05:21Z
2021-02-16T02:07:20Z,42.805,6.029,13.3051,4.60086,2470.156,2021-2-16T04:08:24Z
2021-02-16T02:10:23Z,42.805,6.029,13.3070,4.60041,2470.171,2021-2-16T04:11:27Z
2021-02-16T02:13:27Z,42.805,6.029,13.3047,4.60076,2470.147,2021-2-16T04:14:31Z
2021-02-16T02:16:30Z,42.805,6.029,13.3042,4.60085,2470.171,2021-2-16T04:17:34Z
2021-02-16T02:19:33Z,42.805,6.029,13.3051,4.60055,2470.133,2021-2-16T04:20:37Z
2021-02-16T02:22:36Z,42.805,6.029,13.3051,4.60065,2470.147,2021-2-16T04:23:40Z
2021-02-16T02:25:39Z,42.805,6.029,13.3037,4.60036,2470.1,2021-2-16T04:26:43Z
2021-02-16T02:28:42Z,42.805,6.029,13.3010,4.60034,2470.147,2021-2-16T04:29:46Z
2021-02-16T02:31:45Z,42.805,6.029,13.3042,4.60068,2470.1,2021-2-16T04:32:49Z
2021-02-16T02:34:49Z,42.805,6.029,13.3044,4.60063,2470.133,2021-2-16T04:35:52Z
2021-02-16T02:37:52Z,42.805,6.029,13.3059,4.60084,2470.124,2021-2-16T04:38:56Z
2021-02-16T02:40:55Z,42.805,6.029,13.3056,4.60067,2470.124,2021-2-16T04:41:59Z
2021-02-16T02:43:58Z,42.805,6.029,13.3021,4.60078,2470.124,2021-2-16T04:45:02Z
2021-02-16T02:47:01Z,42.805,6.029,13.3028,4.60087,2470.147,2021-2-16T04:48:05Z
2021-02-16T02:50:04Z,42.805,6.029,13.3011,4.60072,2470.171,2021-2-16T04:51:08Z
2021-02-16T02:53:07Z,42.805,6.029,13.3024,4.60081,2470.11,2021-2-16T04:54:11Z
2021-02-16T02:56:10Z,42.805,6.029,13.3039,4.60033,2470.133,2021-2-16T04:57:14Z
2021-02-16T02:59:13Z,42.805,6.029,13.3006,4.60064,2470.133,2021-2-16T05:00:17Z
2021-02-16T03:02:17Z,42.805,6.029,13.3027,4.60058,2470.124,2021-2-16T05:03:21Z
2021-02-16T03:05:20Z,42.805,6.029,13.3010,4.60069,2470.147,2021-2-16T05:06:24Z
2021-02-16T03:08:23Z,42.805,6.029,13.3001,4.60057,2470.124,2021-2-16T05:09:27Z
2021-02-16T03:11:26Z,42.805,6.029,13.3016,4.60037,2470.156,2021-2-16T05:12:30Z
2021-02-16T03:14:29Z,42.805,6.029,13.3011,4.60060,2470.077,2021-2-16T05:15:33Z
2021-02-16T03:17:32Z,42.805,6.029,13.3010,4.60067,2470.11,2021-2-16T05:18:36Z
2021-02-16T03:20:35Z,42.805,6.029,13.3028,4.60057,2470.156,2021-2-16T05:21:39Z
2021-02-16T03:23:38Z,42.805,6.029,13.3039,4.60062,2470.11,2021-2-16T05:24:42Z
2021-02-16T03:26:42Z,42.805,6.029,13.3041,4.60036,2470.087,2021-2-16T05:27:46Z
2021-02-16T03:29:45Z,42.805,6.029,13.3024,4.60073,2470.124,2021-2-16T05:30:49Z
2021-02-16T03:32:48Z,42.805,6.029,13.3018,4.60081,2470.147,2021-2-16T05:33:52Z
2021-02-16T03:35:51Z,42.805,6.029,13.3015,4.60055,2470.133,2021-2-16T05:36:55Z
2021-02-16T03:38:54Z,42.805,6.029,13.3024,4.60016,2470.087,2021-2-16T05:39:58Z
2021-02-16T03:41:57Z,42.805,6.029,13.3017,4.60038,2470.124,2021-2-16T05:43:01Z
2021-02-16T03:45:00Z,42.805,6.029,13.2999,4.60057,2470.1,2021-2-16T05:46:04Z
2021-02-16T03:48:03Z,42.805,6.029,13.3006,4.60065,2470.11,2021-2-16T05:49:07Z
2021-02-16T03:51:07Z,42.805,6.029,13.3015,4.60049,2470.087,2021-2-16T05:52:11Z
2021-02-16T03:54:10Z,42.805,6.029,13.3019,4.60044,2470.171,2021-2-16T05:55:14Z
2021-02-16T03:57:13Z,42.805,6.029,13.3014,4.60046,2470.133,2021-2-16T05:58:17Z
2021-02-16T04:00:16Z,42.805,6.029,13.3008,4.60041,2470.11,2021-2-16T06:01:20Z
2021-02-16T04:03:19Z,42.805,6.029,13.3011,4.60044,2470.087,2021-2-16T06:04:23Z
2021-02-16T04:06:22Z,42.805,6.029,13.3004,4.60054,2470.124,2021-2-16T06:07:26Z
2021-02-16T04:09:25Z,42.805,6.029,13.3011,4.60023,2470.11,2021-2-16T06:10:29Z
2021-02-16T04:12:28Z,42.805,6.029,13.2996,4.60049,2470.087,2021-2-16T06:13:32Z
2021-02-16T04:15:32Z,42.805,6.029,13.3005,4.60032,2470.133,2021-2-16T06:16:35Z
2021-02-16T04:18:35Z,42.805,6.029,13.2995,4.60044,2470.124,2021-2-16T06:19:39Z
2021-02-16T04:21:38Z,42.805,6.029,13.2998,4.60058,2470.077,2021-2-16T06:22:42Z
2021-02-16T04:24:41Z,42.805,6.029,13.3008,4.60032,2470.124,2021-2-16T06:25:45Z
2021-02-16T04:27:44Z,42.805,6.029,13.2994,4.60023,2470.124,2021-2-16T06:28:48Z
2021-02-16T04:30:47Z,42.805,6.029,13.2995,4.60034,2470.087,2021-2-16T06:31:51Z
2021-02-16T04:33:50Z,42.805,6.029,13.2993,4.60022,2470.147,2021-2-16T06:34:54Z
2021-02-16T04:36:53Z,42.805,6.029,13.2998,4.60020,2470.11,2021-2-16T06:37:57Z
2021-02-16T04:39:57Z,42.805,6.029,13.3003,4.60035,2470.133,2021-2-16T06:41:00Z
2021-02-16T04:43:00Z,42.805,6.029,13.3004,4.60018,2470.087,2021-2-16T06:44:04Z
2021-02-16T04:46:03Z,42.805,6.029,13.3000,4.60026,2470.11,2021-2-16T06:47:07Z
2021-02-16T04:49:06Z,42.805,6.029,13.3028,4.60039,2470.087,2021-2-16T06:50:10Z
2021-02-16T04:52:09Z,42.805,6.029,13.3023,4.60041,2470.1,2021-2-16T06:53:13Z
2021-02-16T04:55:12Z,42.805,6.029,13.3029,4.60049,2470.1,2021-2-16T06:56:16Z
2021-02-16T04:58:15Z,42.805,6.029,13.3007,4.60070,2470.124,2021-2-16T06:59:19Z
2021-02-16T05:01:18Z,42.805,6.029,13.3011,4.60052,2470.124,2021-2-16T07:02:22Z
2021-02-16T05:04:21Z,42.805,6.029,13.3000,4.60053,2470.133,2021-2-16T07:05:25Z
2021-02-16T05:07:25Z,42.805,6.029,13.3034,4.60049,2470.124,2021-2-16T07:08:29Z
2021-02-16T05:10:28Z,42.805,6.029,13.3024,4.60047,2470.124,2021-2-16T07:11:32Z
2021-02-16T05:13:31Z,42.805,6.029,13.3026,4.60044,2470.1,2021-2-16T07:14:35Z
2021-02-16T05:16:34Z,42.805,6.029,13.3014,4.60035,2470.124,2021-2-16T07:17:38Z
2021-02-16T05:19:37Z,42.805,6.029,13.2998,4.60048,2470.147,2021-2-16T07:20:41Z
2021-02-16T05:22:40Z,42.805,6.029,13.3011,4.60054,2470.124,2021-2-16T07:23:44Z
2021-02-16T05:25:43Z,42.805,6.029,13.2997,4.60047,2470.124,2021-2-16T07:26:47Z
2021-02-16T05:28:46Z,42.805,6.029,13.3010,4.60039,2470.147,2021-2-16T07:29:50Z
2021-02-16T05:31:50Z,42.805,6.029,13.3009,4.60017,2470.124,2021-2-16T07:32:54Z
2021-02-16T05:34:53Z,42.805,6.029,13.2995,4.60044,2470.124,2021-2-16T07:35:57Z
2021-02-16T05:37:56Z,42.805,6.029,13.3004,4.60070,2470.147,2021-2-16T07:39:00Z
2021-02-16T05:40:59Z,42.805,6.029,13.3000,4.60032,2470.133,2021-2-16T07:42:03Z
2021-02-16T05:44:02Z,42.805,6.029,13.3010,4.60012,2470.087,2021-2-16T07:45:06Z
2021-02-16T05:47:05Z,42.805,6.029,13.3015,4.60062,2470.133,2021-2-16T07:48:09Z
2021-02-16T05:50:08Z,42.805,6.029,13.3006,4.60057,2470.156,2021-2-16T07:51:12Z
2021-02-16T05:53:11Z,42.805,6.029,13.2996,4.60055,2470.11,2021-2-16T07:54:15Z
2021-02-16T05:56:15Z,42.805,6.029,13.3014,4.60049,2470.133,2021-2-16T07:57:18Z
2021-02-16T05:59:18Z,42.805,6.029,13.3005,4.60044,2470.133,2021-2-16T08:00:22Z
2021-02-16T06:02:21Z,42.805,6.029,13.3004,4.60045,2470.124,2021-2-16T08:03:25Z
2021-02-16T06:05:24Z,42.805,6.029,13.3020,4.60059,2470.147,2021-2-16T08:06:28Z
2021-02-16T06:08:27Z,42.805,6.029,13.3007,4.60042,2470.171,2021-2-16T08:09:31Z
2021-02-16T06:11:30Z,42.805,6.029,13.2996,4.60026,2470.156,2021-2-16T08:12:34Z
2021-02-16T06:14:33Z,42.805,6.029,13.3005,4.60031,2470.156,2021-2-16T08:15:37Z
2021-02-16T06:17:36Z,42.805,6.029,13.3000,4.60060,2470.124,2021-2-16T08:18:40Z
2021-02-16T06:20:40Z,42.805,6.029,13.2998,4.60025,2470.194,2021-2-16T08:21:43Z
2021-02-16T06:23:43Z,42.805,6.029,13.3004,4.60059,2470.147,2021-2-16T08:24:47Z
2021-02-16T06:26:46Z,42.805,6.029,13.3009,4.60062,2470.147,2021-2-16T08:27:50Z
2021-02-16T06:29:49Z,42.805,6.029,13.3018,4.60034,2470.124,2021-2-16T08:30:53Z
2021-02-16T06:32:52Z,42.805,6.029,13.3023,4.60045,2470.18,2021-2-16T08:33:56Z
2021-02-16T06:35:55Z,42.805,6.029,13.3009,4.60055,2470.156,2021-2-16T08:36:59Z
2021-02-16T06:38:58Z,42.805,6.029,13.3013,4.60037,2470.156,2021-2-16T08:40:02Z
2021-02-16T06:42:01Z,42.805,6.029,13.3021,4.60021,2470.18,2021-2-16T08:43:05Z
2021-02-16T06:45:05Z,42.805,6.029,13.3006,4.60065,2470.194,2021-2-16T08:46:08Z
2021-02-16T06:48:08Z,42.805,6.029,13.3021,4.60037,2470.171,2021-2-16T08:49:12Z
2021-02-16T06:51:11Z,42.805,6.029,13.2994,4.60024,2470.18,2021-2-16T08:52:15Z
2021-02-16T06:54:14Z,42.805,6.029,13.2993,4.60024,2470.156,2021-2-16T08:55:18Z
2021-02-16T06:57:17Z,42.805,6.029,13.2996,4.60033,2470.156,2021-2-16T08:58:21Z
2021-02-16T07:00:20Z,42.805,6.029,13.3011,4.60042,2470.203,2021-2-16T09:01:24Z
2021-02-16T07:03:23Z,42.805,6.029,13.3017,4.60072,2470.203,2021-2-16T09:04:27Z
2021-02-16T07:06:26Z,42.805,6.029,13.3025,4.60069,2470.194,2021-2-16T09:07:30Z
2021-02-16T07:09:29Z,42.805,6.029,13.3032,4.60071,2470.217,2021-2-16T09:10:33Z
2021-02-16T07:12:33Z,42.805,6.029,13.3013,4.60063,2470.156,2021-2-16T09:13:37Z
2021-02-16T07:15:36Z,42.805,6.029,13.2993,4.60031,2470.217,2021-2-16T09:16:40Z
2021-02-16T07:18:39Z,42.805,6.029,13.2998,4.60068,2470.203,2021-2-16T09:19:43Z
2021-02-16T07:21:42Z,42.805,6.029,13.3011,4.60040,2470.217,2021-2-16T09:22:46Z
2021-02-16T07:24:45Z,42.805,6.029,13.3021,4.60069,2470.227,2021-2-16T09:25:49Z
2021-02-16T07:27:48Z,42.805,6.029,13.3015,4.60102,2470.25,2021-2-16T09:28:52Z
2021-02-16T07:30:51Z,42.805,6.029,13.3021,4.60094,2470.217,2021-2-16T09:31:55Z
2021-02-16T07:33:54Z,42.805,6.029,13.3019,4.60075,2470.203,2021-2-16T09:34:58Z
2021-02-16T07:36:58Z,42.805,6.029,13.3024,4.60049,2470.24,2021-2-16T09:38:02Z
2021-02-16T07:40:01Z,42.805,6.029,13.3034,4.60066,2470.24,2021-2-16T09:41:05Z
2021-02-16T07:43:04Z,42.805,6.029,13.3036,4.60065,2470.264,2021-2-16T09:44:08Z
2021-02-16T07:46:07Z,42.805,6.029,13.3029,4.60057,2470.24,2021-2-16T09:47:11Z
2021-02-16T07:49:10Z,42.805,6.029,13.3024,4.60079,2470.25,2021-2-16T09:50:14Z
2021-02-16T07:52:13Z,42.805,6.029,13.3009,4.60064,2470.24,2021-2-16T09:53:17Z
2021-02-16T07:55:16Z,42.805,6.029,13.3051,4.60069,2470.203,2021-2-16T09:56:20Z
2021-02-16T07:58:19Z,42.805,6.029,13.3039,4.60057,2470.227,2021-2-16T09:59:23Z
2021-02-16T08:01:23Z,42.805,6.029,13.3034,4.60069,2470.24,2021-2-16T10:02:27Z
2021-02-16T08:04:26Z,42.805,6.029,13.3014,4.60070,2470.25,2021-2-16T10:05:30Z
2021-02-16T08:07:29Z,42.805,6.029,13.3058,4.60092,2470.264,2021-2-16T10:08:33Z
2021-02-16T08:10:32Z,42.805,6.029,13.3028,4.60074,2470.287,2021-2-16T10:11:36Z
2021-02-16T08:13:35Z,42.805,6.029,13.3041,4.60072,2470.227,2021-2-16T10:14:39Z
2021-02-16T08:16:38Z,42.805,6.029,13.3019,4.60094,2470.25,2021-2-16T10:17:42Z
2021-02-16T08:19:41Z,42.805,6.029,13.3033,4.60058,2470.273,2021-2-16T10:20:45Z
2021-02-16T08:22:44Z,42.805,6.029,13.3035,4.60064,2470.25,2021-2-16T10:23:48Z
2021-02-16T08:25:48Z,42.805,6.029,13.3036,4.60025,2470.287,2021-2-16T10:26:52Z
2021-02-16T08:28:51Z,42.805,6.029,13.3030,4.60076,2470.273,2021-2-16T10:29:55Z
2021-02-16T08:31:54Z,42.805,6.029,13.3021,4.60076,2470.264,2021-2-16T10:32:58Z
2021-02-16T08:34:57Z,42.805,6.029,13.3053,4.60053,2470.31,2021-2-16T10:36:01Z
2021-02-16T08:38:00Z,42.805,6.029,13.3049,4.60080,2470.287,2021-2-16T10:39:04Z
2021-02-16T08:41:03Z,42.805,6.029,13.3024,4.60087,2470.287,2021-2-16T10:42:07Z
2021-02-16T08:44:06Z,42.805,6.029,13.3033,4.60089,2470.287,2021-2-16T10:45:10Z
2021-02-16T08:47:09Z,42.805,6.029,13.3027,4.60069,2470.273,2021-2-16T10:48:13Z
2021-02-16T08:50:13Z,42.805,6.029,13.3036,4.60068,2470.287,2021-2-16T10:51:17Z
2021-02-16T08:53:16Z,42.805,6.029,13.3040,4.60079,2470.287,2021-2-16T10:54:20Z
2021-02-16T08:56:19Z,42.805,6.029,13.3026,4.60067,2470.273,2021-2-16T10:57:23Z
2021-02-16T08:59:22Z,42.805,6.029,13.3041,4.60087,2470.287,2021-2-16T11:00:26Z
2021-02-16T09:02:25Z,42.805,6.029,13.3026,4.60044,2470.334,2021-2-16T11:03:29Z
2021-02-16T09:05:28Z,42.805,6.029,13.3019,4.60061,2470.334,2021-2-16T11:06:32Z
2021-02-16T09:08:31Z,42.805,6.029,13.3024,4.60076,2470.297,2021-2-16T11:09:35Z
2021-02-16T09:11:34Z,42.805,6.029,13.3022,4.60075,2470.31,2021-2-16T11:12:38Z
2021-02-16T09:14:38Z,42.805,6.029,13.3019,4.60063,2470.32,2021-2-16T11:15:42Z
2021-02-16T09:17:41Z,42.805,6.029,13.3040,4.60080,2470.287,2021-2-16T11:18:45Z
2021-02-16T09:20:44Z,42.805,6.029,13.3037,4.60066,2470.31,2021-2-16T11:21:48Z
2021-02-16T09:23:47Z,42.805,6.029,13.3025,4.60104,2470.287,2021-2-16T11:24:51Z
2021-02-16T09:26:50Z,42.805,6.029,13.3042,4.60055,2470.273,2021-2-16T11:27:54Z
2021-02-16T09:29:53Z,42.805,6.029,13.3016,4.60074,2470.343,2021-2-16T11:30:57Z
2021-02-16T09:32:56Z,42.805,6.029,13.3022,4.60078,2470.273,2021-2-16T11:34:00Z
2021-02-16T09:36:00Z,42.805,6.029,13.2996,4.60065,2470.334,2021-2-16T11:37:03Z
2021-02-16T09:39:03Z,42.805,6.029,13.3034,4.60052,2470.32,2021-2-16T11:40:07Z
2021-02-16T09:42:06Z,42.805,6.029,13.3022,4.60064,2470.32,2021-2-16T11:43:10Z
2021-02-16T09:45:09Z,42.805,6.029,13.3013,4.60056,2470.334,2021-2-16T11:46:13Z
2021-02-16T09:48:12Z,42.805,6.029,13.3033,4.60059,2470.334,2021-2-16T11:49:16Z
2021-02-16T09:51:15Z,42.805,6.029,13.3015,4.60031,2470.297,2021-2-16T11:52:19Z
2021-02-16T09:54:18Z,42.805,6.029,13.3024,4.60053,2470.31,2021-2-16T11:55:22Z
2021-02-16T09:57:21Z,42.805,6.029,13.3022,4.60056,2470.297,2021-2-16T11:58:25Z
2021-02-16T10:00:25Z,42.805,6.029,13.3036,4.60063,2470.347,2021-2-16T12:01:29Z
2021-02-16T10:03:28Z,42.805,6.029,13.3028,4.60064,2470.31,2021-2-16T12:04:32Z
2021-02-16T10:06:31Z,42.805,6.029,13.3021,4.60062,2470.32,2021-2-16T12:07:35Z
2021-02-16T10:09:34Z,42.805,6.029,13.3030,4.60072,2470.38,2021-2-16T12:10:38Z
2021-02-16T10:12:37Z,42.805,6.029,13.3035,4.60069,2470.334,2021-2-16T12:13:41Z
2021-02-16T10:15:40Z,42.805,6.029,13.3047,4.60038,2470.297,2021-2-16T12:16:44Z
2021-02-16T10:18:43Z,42.805,6.029,13.3006,4.60064,2470.297,2021-2-16T12:19:47Z
2021-02-16T10:21:46Z,42.805,6.029,13.3028,4.60075,2470.343,2021-2-16T12:22:50Z
2021-02-16T10:24:50Z,42.805,6.029,13.3036,4.60072,2470.31,2021-2-16T12:25:54Z
2021-02-16T10:27:53Z,42.805,6.029,13.3048,4.60060,2470.334,2021-2-16T12:28:57Z
2021-02-16T10:30:56Z,42.805,6.029,13.3042,4.60055,2470.334,2021-2-16T12:32:00Z
2021-02-16T10:33:59Z,42.805,6.029,13.3029,4.60041,2470.334,2021-2-16T12:35:03Z
2021-02-16T10:37:02Z,42.805,6.029,13.3043,4.60059,2470.297,2021-2-16T12:38:06Z
2021-02-16T10:40:05Z,42.805,6.029,13.3007,4.60049,2470.343,2021-2-16T12:41:09Z
2021-02-16T10:43:08Z,42.805,6.029,13.3021,4.60068,2470.31,2021-2-16T12:44:12Z
2021-02-16T10:46:11Z,42.805,6.029,13.3030,4.60068,2470.343,2021-2-16T12:47:15Z
2021-02-16T10:49:15Z,42.805,6.029,13.3046,4.60055,2470.31,2021-2-16T12:50:19Z
2021-02-16T10:52:18Z,42.805,6.029,13.3030,4.60059,2470.32,2021-2-16T12:53:22Z
2021-02-16T10:55:21Z,42.805,6.029,13.2999,4.60034,2470.31,2021-2-16T12:56:25Z
2021-02-16T10:58:24Z,42.805,6.029,13.2993,4.60024,2470.31,2021-2-16T12:59:28Z
2021-02-16T11:01:27Z,42.805,6.029,13.3006,4.60041,2470.297,2021-2-16T13:02:31Z
2021-02-16T11:04:30Z,42.805,6.029,13.3024,4.60047,2470.287,2021-2-16T13:05:34Z
2021-02-16T11:07:33Z,42.805,6.029,13.3024,4.60057,2470.31,2021-2-16T13:08:37Z
2021-02-16T11:10:36Z,42.805,6.029,13.3005,4.60052,2470.297,2021-2-16T13:11:40Z
2021-02-16T11:13:40Z,42.805,6.029,13.2996,4.60029,2470.31,2021-2-16T13:14:44Z
2021-02-16T11:16:43Z,42.805,6.029,13.3006,4.60046,2470.297,2021-2-16T13:17:47Z
2021-02-16T11:19:46Z,42.805,6.029,13.3018,4.60045,2470.297,2021-2-16T13:20:50Z
2021-02-16T11:22:49Z,42.805,6.029,13.2996,4.60052,2470.334,2021-2-16T13:23:53Z
2021-02-16T11:25:52Z,42.805,6.029,13.3018,4.60036,2470.32,2021-2-16T13:26:56Z
2021-02-16T11:28:55Z,42.805,6.029,13.3034,4.60046,2470.31,2021-2-16T13:29:59Z
2021-02-16T11:31:58Z,42.805,6.029,13.3032,4.60061,2470.287,2021-2-16T13:33:02Z
2021-02-16T11:35:02Z,42.805,6.029,13.3024,4.60057,2470.264,2021-2-16T13:36:06Z
2021-02-16T11:38:05Z,42.805,6.029,13.3023,4.60039,2470.297,2021-2-16T13:39:09Z
2021-02-16T11:41:08Z,42.805,6.029,13.3009,4.60035,2470.31,2021-2-16T13:42:12Z
2021-02-16T11:44:11Z,42.805,6.029,13.3025,4.60049,2470.273,2021-2-16T13:45:15Z
2021-02-16T11:47:14Z,42.805,6.029,13.3035,4.60069,2470.297,2021-2-16T13:48:18Z
2021-02-16T11:50:17Z,42.805,6.029,13.3009,4.60061,2470.273,2021-2-16T13:51:21Z
2021-02-16T11:53:20Z,42.805,6.029,13.3015,4.60050,2470.273,2021-2-16T13:54:24Z
2021-02-16T11:56:23Z,42.805,6.029,13.3021,4.60054,2470.297,2021-2-16T13:57:27Z
2021-02-16T11:59:27Z,42.805,6.029,13.3026,4.60034,2470.297,2021-2-16T14:00:31Z
2021-02-16T12:02:30Z,42.805,6.029,13.3036,4.60062,2470.287,2021-2-16T14:03:34Z
2021-02-16T12:05:33Z,42.805,6.029,13.3024,4.60033,2470.31,2021-2-16T14:06:37Z
2021-02-16T12:08:36Z,42.805,6.029,13.3030,4.60036,2470.287,2021-2-16T14:09:40Z
2021-02-16T12:11:39Z,42.805,6.029,13.2993,4.60040,2470.287,2021-2-16T14:12:43Z
2021-02-16T12:14:42Z,42.805,6.029,13.3018,4.60052,2470.273,2021-2-16T14:15:46Z
2021-02-16T12:17:45Z,42.805,6.029,13.3028,4.60031,2470.287,2021-2-16T14:18:49Z
2021-02-16T12:20:48Z,42.805,6.029,13.3029,4.60039,2470.287,2021-2-16T14:21:52Z
2021-02-16T12:23:52Z,42.805,6.029,13.3028,4.60054,2470.273,2021-2-16T14:24:56Z
2021-02-16T12:26:55Z,42.805,6.029,13.3017,4.60057,2470.264,2021-2-16T14:27:59Z
2021-02-16T12:29:58Z,42.805,6.029,13.3027,4.60062,2470.24,2021-2-16T14:31:02Z
2021-02-16T12:33:01Z,42.805,6.029,13.3021,4.60059,2470.264,2021-2-16T14:34:05Z
2021-02-16T12:36:04Z,42.805,6.029,13.3022,4.60067,2470.264,2021-2-16T14:37:08Z
2021-02-16T12:39:07Z,42.805,6.029,13.3024,4.60049,2470.264,2021-2-16T14:40:11Z
2021-02-16T12:42:10Z,42.805,6.029,13.3032,4.60028,2470.264,2021-2-16T14:43:14Z
2021-02-16T12:45:13Z,42.805,6.029,13.3000,4.60035,2470.287,2021-2-16T14:46:17Z
2021-02-16T12:48:17Z,42.805,6.029,13.3026,4.60049,2470.264,2021-2-16T14:49:21Z
2021-02-16T12:51:20Z,42.805,6.029,13.3015,4.60072,2470.264,2021-2-16T14:52:24Z
2021-02-16T12:54:23Z,42.805,6.029,13.3039,4.60060,2470.24,2021-2-16T14:55:27Z
2021-02-16T12:57:26Z,42.805,6.029,13.3013,4.60060,2470.227,2021-2-16T14:58:30Z
2021-02-16T13:00:29Z,42.805,6.029,13.3025,4.60084,2470.24,2021-2-16T15:01:33Z
2021-02-16T13:03:32Z,42.805,6.029,13.3039,4.60048,2470.25,2021-2-16T15:04:36Z
2021-02-16T13:06:35Z,42.805,6.029,13.3043,4.60046,2470.24,2021-2-16T15:07:39Z
2021-02-16T13:09:39Z,42.805,6.029,13.3015,4.60066,2470.227,2021-2-16T15:10:42Z
2021-02-16T13:12:42Z,42.805,6.029,13.3028,4.60072,2470.217,2021-2-16T15:13:46Z
2021-02-16T13:15:45Z,42.805,6.029,13.3023,4.60069,2470.287,2021-2-16T15:16:49Z
2021-02-16T13:18:48Z,42.805,6.029,13.3029,4.60062,2470.217,2021-2-16T15:19:52Z
2021-02-16T13:21:51Z,42.805,6.029,13.3029,4.60080,2470.24,2021-2-16T15:22:55Z
2021-02-16T13:24:54Z,42.805,6.029,13.3033,4.60049,2470.217,2021-2-16T15:25:58Z
2021-02-16T13:27:57Z,42.805,6.029,13.3048,4.60064,2470.217,2021-2-16T15:29:01Z
2021-02-16T13:31:00Z,42.805,6.029,13.3021,4.60049,2470.24,2021-2-16T15:32:04Z
2021-02-16T13:34:04Z,42.805,6.029,13.3029,4.60099,2470.264,2021-2-16T15:35:08Z
2021-02-16T13:37:07Z,42.805,6.029,13.3011,4.60085,2470.194,2021-2-16T15:38:11Z
2021-02-16T13:40:10Z,42.805,6.029,13.3053,4.60081,2470.18,2021-2-16T15:41:14Z
2021-02-16T13:43:13Z,42.805,6.029,13.3061,4.60038,2470.24,2021-2-16T15:44:17Z
2021-02-16T13:46:16Z,42.805,6.029,13.3034,4.60087,2470.24,2021-2-16T15:47:20Z
2021-02-16T13:49:19Z,42.805,6.029,13.3036,4.60092,2470.18,2021-2-16T15:50:23Z
2021-02-16T13:52:22Z,42.805,6.029,13.3041,4.60036,2470.18,2021-2-16T15:53:26Z
2021-02-16T13:55:25Z,42.805,6.029,13.3048,4.60045,2470.24,2021-2-16T15:56:29Z
2021-02-16T13:58:29Z,42.805,6.029,13.3034,4.60035,2470.24,2021-2-16T15:59:33Z
2021-02-16T14:01:32Z,42.805,6.029,13.3036,4.60034,2470.227,2021-2-16T16:02:36Z
2021-02-16T14:04:35Z,42.805,6.029,13.3011,4.60034,2470.203,2021-2-16T16:05:39Z
2021-02-16T14:07:38Z,42.805,6.029,13.3031,4.60024,2470.203,2021-2-16T16:08:42Z
2021-02-16T14:10:41Z,42.805,6.029,13.3032,4.60034,2470.217,2021-2-16T16:11:45Z
2021-02-16T14:13:44Z,42.805,6.029,13.3051,4.60014,2470.171,2021-2-16T16:14:48Z
2021-02-16T14:16:47Z,42.805,6.029,13.3024,4.60039,2470.217,2021-2-16T16:17:51Z
2021-02-16T14:19:50Z,42.805,6.029,13.3020,4.60042,2470.217,2021-2-16T16:20:54Z
2021-02-16T14:22:54Z,42.805,6.029,13.3016,4.60039,2470.227,2021-2-16T16:23:58Z
2021-02-16T14:25:57Z,42.805,6.029,13.3017,4.60011,2470.217,2021-2-16T16:27:01Z
2021-02-16T14:29:00Z,42.805,6.029,13.3030,4.60029,2470.203,2021-2-16T16:30:04Z
2021-02-16T14:32:03Z,42.805,6.029,13.3000,4.60014,2470.194,2021-2-16T16:33:07Z
2021-02-16T14:35:06Z,42.805,6.029,13.3006,4.60028,2470.18,2021-2-16T16:36:10Z
2021-02-16T14:38:09Z,42.805,6.029,13.3018,4.60009,2470.194,2021-2-16T16:39:13Z
2021-02-16T14:41:12Z,42.805,6.029,13.3000,4.60032,2470.171,2021-2-16T16:42:16Z
2021-02-16T14:44:15Z,42.805,6.029,13.3020,4.60014,2470.18,2021-2-16T16:45:19Z
2021-02-16T14:47:19Z,42.805,6.029,13.3025,4.60024,2470.18,2021-2-16T16:48:23Z
2021-02-16T14:50:22Z,42.805,6.029,13.3009,4.60016,2470.194,2021-2-16T16:51:26Z
2021-02-16T14:53:25Z,42.805,6.029,13.3018,4.60001,2470.194,2021-2-16T16:54:29Z
2021-02-16T14:56:28Z,42.805,6.029,13.3014,4.60008,2470.194,2021-2-16T16:57:32Z
2021-02-16T14:59:31Z,42.805,6.029,13.3008,4.60028,2470.217,2021-2-16T17:00:35Z
2021-02-16T15:02:34Z,42.805,6.029,13.3018,4.60017,2470.203,2021-2-16T17:03:38Z
2021-02-16T15:05:37Z,42.805,6.029,13.3011,4.60014,2470.156,2021-2-16T17:06:41Z
2021-02-16T15:08:41Z,42.805,6.029,13.3012,4.60017,2470.194,2021-2-16T17:09:44Z
2021-02-16T15:11:44Z,42.805,6.029,13.3015,4.60009,2470.171,2021-2-16T17:12:48Z